Wind_Speed
18 11 15 16 12 12 16 18 19 13 10 10 9 6 5 5 6 7 7 10 11 12 10 10 11 10 10 9 9 10 10 10 10 9 10 11 11 10 8 7 6 5 5
14 11 14 17 18 17 18 17 16 19 16 13 11 10 9 5 6 6 7 10 10 12 11 11 11 10 9 10 10 10 10 10 9 9 9 9 9 8 7 7 7 7 7
13 9 15 17 20 21 26 24 17 13 14 15 14 13 11 7 6 6 6 8 12 11 10 9 10 9 8 8 10 10 11 11 11 10 9 9 10 11 10 10 9 9 9
15 16 17 18 22 25 25 23 20 21 17 22 17 15 13 13 8 7 8 9 11 11 11 11 9 8 8 9 9 11 11 11 11 10 9 10 11 11 10 9 8 8 9
19 18 19 20 25 29 26 27 26 25 22 24 20 16 14 12 9 8 9 10 15 11 11 11 10 9 9 10 10 11 11 10 9 8 9 9 9 10 10 10 9 9 9
19 19 19 22 26 32 30 31 28 29 24 23 22 17 16 14 9 5 12 11 10 12 12 11 10 10 10 10 10 10 10 10 11 10 10 10 9 10 9 8 8 8 9
19 21 21 23 28 33 35 32 33 30 26 25 21 19 19 14 11 8 11 12 14 14 12 12 11 9 9 9 10 10 10 12 12 10 10 10 10 10 10 9 9 10 9
19 21 23 20 29 37 37 36 31 29 27 25 23 20 22 17 12 10 12 15 15 13 13 11 9 10 10 11 11 12 13 14 12 11 10 9 10 10 11 11 11 10 10
20 23 24 25 28 36 36 36 25 29 28 26 25 23 17 28 13 14 16 16 15 15 13 10 10 10 10 11 12 14 14 13 13 11 11 10 12 12 11 11 11 10 10
22 23 29 30 30 34 33 37 31 33 31 26 24 21 21 21 23 17 17 18 17 13 11 10 10 11 11 13 14 15 14 13 14 12 12 12 12 12 11 11 11 11 10
23 22 29 31 32 30 32 35 32 25 27 25 25 23 26 23 24 20 20 19 16 14 11 11 10 11 12 13 15 16 16 16 15 14 14 14 12 11 11 11 11 10 9
15 17 22 26 27 33 38 35 35 32 24 26 28 28 29 35 29 25 23 21 18 16 14 13 13 12 12 14 15 15 15 17 16 15 13 12 11 10 9 9 8 7 5
13 15 18 20 26 29 47 37 32 31 29 31 30 29 31 26 33 29 26 24 21 18 16 16 15 15 14 15 15 16 15 15 15 14 12 11 9 8 8 7 5 4 2
13 11 11 16 17 16 20 45 38 27 28 33 30 27 33 36 35 29 28 25 22 20 19 18 17 16 16 17 16 16 17 14 14 13 13 12 10 9 8 6 3 1 1
14 14 15 13 17 10 9 25 34 41 31 29 32 32 31 39 33 31 27 25 23 22 21 18 17 15 16 17 17 17 15 14 13 13 12 11 10 7 6 4 2 2 3
12 13 16 17 18 19 18 20 15 28 28 37 31 35 35 36 35 30 28 25 24 24 22 21 18 16 15 16 16 16 15 15 14 13 11 10 8 8 5 4 5 6 8
11 13 16 15 16 17 15 17 19 31 32 33 33 36 36 39 35 32 29 26 27 23 24 22 19 16 15 16 17 17 17 15 13 13 11 11 10 9 8 9 9 11 13
10 15 16 17 16 17 19 16 25 31 41 39 37 31 43 41 34 30 30 28 26 26 25 23 19 15 15 16 17 18 17 16 14 11 12 12 11 11 12 13 13 15 16
13 13 13 14 18 18 13 19 12 27 40 37 43 45 45 38 32 32 32 28 27 27 26 21 19 15 15 17 18 19 18 16 15 16 14 12 13 17 15 16 20 18 18
12 10 11 16 18 11 14 7 8 21 43 42 39 46 40 39 36 37 37 31 26 27 24 21 18 15 14 16 17 18 18 18 17 17 16 16 15 16 21 26 23 21 21
10 8 5 14 16 15 9 6 14 35 35 31 39 46 45 46 47 47 38 36 28 27 24 19 17 16 14 14 19 18 19 19 18 19 18 17 17 16 17 23 20 21 19
8 7 6 10 14 14 10 11 12 20 25 33 35 40 51 50 47 42 41 37 28 30 27 22 20 17 17 16 15 16 19 21 21 21 20 20 20 19 20 18 16 19 22
7 9 4 6 12 16 15 16 17 20 33 33 32 30 42 52 51 48 44 35 35 32 30 24 23 18 23 19 17 16 12 15 16 20 22 23 23 24 25 22 18 20 20
8 9 5 3 8 17 16 20 24 20 25 24 23 24 32 49 48 44 41 37 39 34 34 29 27 25 22 25 20 19 18 18 14 17 23 23 23 25 25 25 28 33 28
11 8 7 3 4 14 21 20 25 20 20 19 23 25 37 42 48 48 47 42 41 39 38 34 33 31 26 28 26 22 21 21 23 27 28 28 31 29 29 29 30 35 35
11 11 8 6 3 6 14 17 25 21 21 21 24 34 33 38 40 41 48 45 44 42 40 38 35 34 31 34 30 27 24 24 24 25 27 28 30 34 39 36 38 41 45
Wind_Direction
281 291 212 215 198 198 220 216 213 198 199 199 211 250 211 181 238 194 193 194 174 171 168 171 169 169 164 166 163 157 156 157 152 154 154 152 155 158 160 152 156 139 141
310 256 232 208 190 192 211 206 239 241 205 213 225 246 210 199 237 218 198 190 185 177 169 168 174 173 168 160 153 151 146 142 146 150 152 155 149 142 133 126 123 128 130
291 283 241 220 200 191 196 204 207 215 234 233 218 221 218 216 222 257 209 181 185 180 170 172 181 173 162 159 147 145 141 144 143 138 137 132 136 131 127 123 125 129 127
281 277 243 231 215 203 200 201 188 181 193 237 215 211 221 215 229 245 246 190 192 189 177 178 176 176 164 160 151 150 149 144 142 141 133 138 139 134 128 130 133 134 130
266 265 248 231 225 218 214 213 212 209 203 221 217 207 215 204 216 234 259 204 199 181 177 175 181 172 164 154 151 145 143 143 137 133 145 142 141 134 138 139 140 134 130
259 256 247 240 233 225 225 223 228 212 214 204 207 207 203 210 215 232 244 200 192 185 184 176 176 169 161 155 149 151 155 152 152 148 150 150 140 144 137 139 133 131 130
253 257 252 243 231 227 226 227 218 213 205 208 208 202 203 210 216 220 229 202 196 189 176 179 178 169 162 156 157 156 162 158 153 151 149 143 148 143 140 139 137 133 131
259 249 242 240 231 228 228 238 228 205 202 206 208 204 219 204 207 200 207 205 194 186 184 182 179 171 166 167 165 164 160 156 153 151 149 150 148 138 137 133 131 126 123
256 250 244 237 234 233 235 241 242 193 206 212 215 218 212 209 201 203 199 200 190 181 185 182 188 172 171 170 164 163 162 161 150 152 151 150 139 136 134 128 125 122 120
258 249 245 238 236 236 239 242 249 185 192 202 214 214 197 197 211 194 191 195 192 185 188 183 181 160 168 162 162 163 155 157 151 154 148 144 140 136 130 127 120 117 116
269 255 241 236 238 236 241 243 233 217 186 202 211 223 195 186 202 185 189 190 186 191 186 184 166 167 167 164 168 160 163 155 156 155 153 148 144 138 132 126 125 117 110
267 258 240 235 232 235 239 245 230 235 195 212 218 218 209 195 194 188 186 189 188 191 184 175 168 170 169 181 174 169 173 162 164 158 155 153 145 144 139 129 125 118 112
247 259 241 236 232 253 230 237 232 226 225 218 209 216 212 214 187 185 184 186 189 186 184 175 171 169 177 181 179 180 172 174 173 166 162 163 163 164 149 153 153 163 171
249 267 225 231 235 257 240 233 234 233 221 217 211 219 216 190 180 183 185 187 188 187 182 179 175 175 178 184 182 182 176 179 177 179 177 180 167 152 148 150 144 161 347
255 246 238 221 226 228 239 226 239 234 219 212 220 239 202 175 177 184 185 190 188 189 179 178 178 182 187 188 183 185 182 183 177 179 172 168 161 159 161 159 189 267 301
255 249 236 232 229 236 230 230 258 224 224 225 221 202 199 182 174 186 191 189 189 189 182 182 181 182 187 191 188 186 184 183 180 177 173 172 179 204 206 240 259 279 280
287 272 231 230 217 221 227 238 277 245 236 207 215 199 199 173 172 186 189 189 192 190 185 187 183 176 197 194 193 193 193 193 196 199 196 200 205 222 234 252 267 280 285
295 278 250 216 219 224 235 255 288 238 229 211 197 199 168 177 175 188 189 189 194 190 186 187 183 181 196 203 202 202 206 209 214 216 227 228 230 245 259 266 277 278 289
316 301 248 222 215 228 239 269 264 229 208 208 192 176 177 169 179 192 191 188 196 191 191 181 191 187 197 208 209 212 217 224 226 231 234 245 261 261 265 280 282 288 295
323 323 224 218 212 228 236 249 225 223 195 189 203 172 173 178 188 192 188 187 194 191 187 184 192 193 206 214 220 223 226 233 236 239 243 248 260 276 293 283 279 291 299
320 323 258 214 207 213 222 209 177 201 200 208 189 174 183 186 193 195 187 183 193 192 189 188 196 201 212 221 225 232 239 244 246 246 247 253 263 273 290 284 277 281 292
315 310 311 238 229 222 193 164 181 209 198 201 211 200 191 193 196 196 203 191 189 197 198 193 203 212 221 231 235 237 246 252 253 255 259 258 260 274 286 287 280 290 300
303 306 294 278 227 202 194 191 197 184 205 220 222 215 202 197 199 200 206 196 201 204 209 206 216 224 228 231 237 233 238 251 274 260 254 259 265 276 279 288 289 285 290
282 296 290 285 239 215 213 210 199 202 199 204 212 215 210 207 203 200 199 200 212 210 216 217 224 229 241 237 231 235 235 221 229 244 271 256 263 270 274 289 290 292 277
280 277 282 254 231 218 220 215 200 198 208 214 230 218 210 201 199 201 205 204 212 214 221 224 232 239 250 239 247 243 248 245 244 246 255 268 279 278 273 275 279 286 282
283 276 263 253 211 202 211 217 214 204 213 211 219 226 216 208 208 211 213 213 216 218 224 230 235 243 247 242 242 248 252 256 259 260 264 268 276 281 282 282 283 280 283
Height
3115 3114 3114 3117 3119 3121 3124 3126 3127 3128 3129 3130 3133 3135 3138 3138 3141 3141 3142 3143 3144 3145 3147 3148 3149 3151 3154 3154 3155 3156 3156 3157 3157 3159 3160 3160 3161 3163 3164 3165 3167 3167 3168
3113 3114 3114 3115 3116 3119 3122 3125 3127 3127 3127 3129 3131 3133 3137 3138 3140 3140 3141 3143 3145 3147 3147 3148 3150 3151 3154 3155 3155 3157 3157 3157 3159 3160 3161 3161 3162 3164 3166 3167 3169 3169 3169
3112 3112 3113 3114 3115 3116 3117 3120 3123 3127 3128 3127 3129 3132 3135 3136 3139 3140 3142 3143 3146 3146 3148 3149 3151 3152 3153 3155 3156 3157 3158 3159 3160 3161 3163 3164 3165 3165 3167 3168 3170 3171 3170
3110 3110 3111 3113 3114 3114 3115 3118 3120 3121 3125 3126 3127 3130 3133 3135 3137 3140 3142 3142 3144 3147 3149 3150 3151 3153 3155 3157 3157 3159 3159 3160 3161 3162 3164 3165 3166 3166 3168 3170 3171 3171 3171
3107 3106 3107 3109 3110 3111 3112 3115 3116 3118 3118 3122 3126 3129 3131 3133 3137 3140 3141 3143 3145 3147 3149 3150 3153 3154 3157 3158 3159 3159 3160 3161 3162 3164 3166 3166 3167 3168 3168 3170 3170 3171 3172
3104 3103 3104 3105 3106 3108 3109 3109 3112 3114 3116 3118 3122 3126 3128 3132 3134 3137 3142 3141 3143 3146 3149 3151 3153 3155 3157 3158 3158 3159 3160 3162 3163 3163 3165 3166 3167 3168 3169 3170 3172 3171 3172
3100 3100 3100 3101 3102 3104 3104 3104 3104 3109 3112 3117 3121 3124 3126 3129 3133 3136 3140 3141 3144 3147 3149 3152 3154 3154 3156 3157 3158 3160 3162 3163 3163 3164 3166 3166 3167 3167 3170 3169 3171 3171 3173
3096 3096 3096 3098 3098 3099 3100 3097 3092 3101 3108 3115 3119 3121 3123 3128 3131 3134 3138 3142 3144 3146 3150 3152 3153 3154 3156 3158 3159 3161 3162 3163 3164 3165 3165 3166 3167 3167 3170 3170 3172 3172 3174
3091 3092 3092 3092 3093 3092 3096 3093 3079 3097 3108 3112 3117 3119 3121 3126 3131 3134 3137 3141 3143 3146 3149 3151 3153 3154 3156 3157 3159 3161 3163 3164 3164 3165 3166 3168 3168 3170 3171 3171 3173 3174 3175
3086 3087 3087 3087 3088 3088 3091 3090 3079 3079 3099 3108 3114 3116 3118 3123 3128 3133 3137 3141 3144 3145 3149 3151 3153 3153 3156 3158 3160 3162 3163 3164 3165 3166 3168 3168 3170 3171 3172 3173 3174 3176 3176
3080 3079 3081 3083 3086 3087 3085 3088 3093 3091 3094 3107 3112 3114 3118 3123 3128 3132 3136 3139 3142 3145 3148 3150 3151 3155 3157 3159 3161 3162 3163 3164 3165 3166 3167 3169 3170 3172 3173 3174 3175 3176 3177
3075 3075 3077 3080 3083 3083 3083 3085 3086 3092 3098 3105 3110 3111 3112 3119 3125 3130 3134 3138 3140 3144 3147 3149 3152 3155 3157 3160 3161 3162 3163 3163 3165 3166 3168 3170 3171 3172 3173 3175 3176 3176 3177
3073 3073 3074 3077 3080 3080 3080 3083 3084 3090 3098 3104 3103 3109 3113 3116 3121 3128 3133 3135 3139 3142 3146 3148 3152 3154 3157 3160 3161 3162 3164 3165 3166 3168 3169 3171 3172 3172 3173 3174 3175 3176 3176
3072 3071 3071 3075 3077 3076 3078 3083 3087 3090 3094 3099 3100 3105 3109 3112 3119 3126 3132 3135 3139 3142 3145 3149 3151 3154 3156 3159 3160 3162 3163 3164 3165 3168 3168 3170 3171 3172 3173 3173 3174 3175 3175
3071 3070 3070 3071 3074 3076 3078 3082 3083 3088 3092 3093 3097 3103 3105 3112 3117 3126 3130 3134 3138 3141 3145 3149 3151 3154 3156 3158 3159 3162 3163 3164 3166 3167 3169 3169 3171 3172 3173 3173 3173 3175 3175
3068 3067 3068 3069 3071 3073 3075 3079 3083 3082 3086 3091 3095 3100 3104 3110 3118 3125 3131 3133 3137 3141 3144 3148 3150 3153 3155 3157 3159 3161 3163 3164 3165 3167 3168 3169 3170 3172 3171 3172 3173 3173 3174
3066 3065 3065 3066 3068 3071 3073 3076 3076 3076 3079 3084 3091 3096 3101 3109 3116 3123 3129 3132 3136 3139 3142 3146 3149 3150 3155 3156 3158 3160 3163 3164 3165 3166 3168 3169 3170 3170 3171 3171 3172 3171 3172
3066 3062 3061 3064 3066 3068 3070 3071 3070 3070 3074 3080 3087 3092 3100 3107 3113 3121 3126 3130 3134 3137 3141 3144 3147 3149 3153 3155 3158 3160 3162 3163 3165 3165 3166 3167 3168 3168 3169 3170 3170 3169 3168
3064 3061 3059 3060 3063 3065 3067 3065 3063 3066 3072 3079 3084 3089 3098 3103 3110 3118 3124 3127 3132 3136 3140 3142 3146 3147 3151 3153 3156 3158 3160 3162 3163 3164 3165 3164 3164 3165 3166 3166 3167 3166 3165
3061 3059 3057 3058 3060 3061 3063 3063 3062 3066 3070 3076 3082 3088 3097 3103 3108 3115 3117 3122 3130 3135 3138 3141 3144 3146 3149 3152 3154 3156 3158 3159 3161 3161 3162 3162 3163 3163 3160 3159 3163 3162 3161
3060 3058 3056 3056 3059 3060 3061 3060 3064 3068 3072 3076 3080 3089 3093 3099 3104 3111 3117 3121 3127 3133 3137 3139 3142 3144 3147 3149 3151 3153 3155 3156 3157 3159 3160 3159 3159 3159 3159 3157 3155 3157 3158
3060 3058 3055 3055 3056 3057 3060 3061 3064 3068 3072 3077 3081 3085 3091 3096 3103 3109 3115 3118 3123 3130 3133 3136 3139 3142 3144 3146 3148 3150 3151 3153 3153 3155 3155 3156 3155 3154 3155 3154 3153 3151 3149
3058 3058 3056 3053 3054 3056 3059 3061 3065 3067 3072 3073 3077 3081 3087 3094 3100 3106 3111 3116 3121 3126 3130 3133 3135 3138 3141 3143 3145 3146 3148 3150 3150 3148 3151 3151 3151 3152 3152 3151 3150 3149 3149
3056 3057 3056 3054 3053 3054 3057 3059 3064 3066 3067 3072 3076 3080 3086 3092 3097 3102 3107 3113 3117 3122 3125 3128 3131 3134 3136 3138 3140 3142 3143 3144 3146 3145 3144 3146 3147 3147 3147 3146 3145 3145 3144
3053 3055 3055 3054 3053 3052 3054 3058 3060 3064 3068 3071 3074 3078 3083 3087 3093 3098 3102 3108 3113 3117 3121 3123 3126 3129 3132 3134 3134 3136 3138 3139 3140 3142 3142 3140 3139 3140 3140 3141 3141 3140 3137
3051 3052 3054 3053 3054 3053 3053 3054 3058 3062 3065 3067 3070 3074 3079 3085 3089 3093 3097 3103 3108 3112 3115 3118 3121 3123 3126 3127 3129 3130 3131 3133 3134 3135 3135 3136 3135 3132 3129 3134 3134 3134 3132